Location: Chochol
(49.7771°N, 14.9780°E)
Time: 16:15:15
(UTC+00:00)

ISS - Visible Passes

Search period start: 08 March 2021 00:00
Search period end: 18 March 2021 00:00
Orbit: 417 x 422 km, 51.6° (Epoch: 08 March)

Date Brightness Start Highest point End Pass type
(mag) Time Alt. Az. Time Alt. Az. Time Alt. Az.
08 Mar -3.1 03:13:12 55° E 03:13:12 55° E 03:15:56 10° E visible
08 Mar -2.8 04:46:10 10° W 04:49:13 33° SSW 04:52:16 10° SSE visible
09 Mar -0.8 02:27:42 15° E 02:27:42 15° E 02:28:24 10° E visible
09 Mar -3.4 04:00:41 32° W 04:01:49 47° SSW 04:05:04 10° SE visible
10 Mar -2.9 03:15:18 42° SE 03:15:18 42° SE 03:17:43 10° ESE visible
10 Mar -1.8 04:48:37 10° W 04:50:43 16° SW 04:52:48 10° S visible
11 Mar -0.7 02:30:01 12° ESE 02:30:01 12° ESE 02:30:16 10° ESE visible
11 Mar -2.4 04:03:00 22° SW 04:03:24 23° SW 04:06:07 10° SSE visible
12 Mar -1.7 03:17:53 19° SSE 03:17:53 19° SSE 03:19:06 10° SSE visible
